Location: Drocourt
(49.0571°N, 1.7669°E)
Time: 14:44:08
(UTC+00:00)

Vanguard 3 - Pass Details

Date: 14 April 2024
Orbit: 509 x 3233 km, 33.3° (Epoch: 22 May)

Event Time Altitude Azimuth Distance (km) Brightness Sun altitude
Rises 08:50:09 0° 246° (WSW) 3,685 10.2 35.3°
Reaches altitude 10° 08:55:03 10° 214° (SW) 2,223 9.5 36.0°
Maximum altitude 08:56:36 11° 196° (SSW) 1,995 9.5 36.2°
Drops below altitude 10° 08:58:00 10° 177° (S) 1,974 9.7 36.4°
Sets 09:01:33 0° 140° (SE) 2,663 10.7 36.9°
